STARLINK-35227

Last updated on Mon Oct 20 2025 00:02:05 GMT+0000 (Coordinated Universal Time)

1 65654U 25211C 25292.25002315 -.02401198 00000+0 -60643-1 0 9991 2 65654 97.6036 334.4107 0001649 85.5592 285.7923 15.43318461 5776
UTC large
Height (km)
Speed (km/s)
/
Latitude / Longitude
Inclination (degrees)
Orbital Period (minutes)
Azimuth
Elevation
Range (km)
Doppler Factor

Next 0 passes for location: London (51.5072 / 0.1276)

Sorry there are no passes over London.